Time,TemperatureF,DewpointF,PressureIn,WindDirection,WindDirectionDegrees,WindSpeedMPH,WindSpeedGustMPH,Humidity,HourlyPrecipIn,Conditions,Clouds,dailyrainin,SoftwareType,DateUTC
2013-04-03 00:03:00,66.9,61.0,30.03,ENE,64,0.0,-999.0,80,-99.99,,,0.01,weatherlink.com 1.10,2013-04-03 04:03:00,
2013-04-03 00:18:00,66.4,60.0,30.03,ENE,64,0.0,-999.0,80,-99.99,,,0.01,weatherlink.com 1.10,2013-04-03 04:18:00,
2013-04-03 00:33:00,66.5,61.0,30.03,ENE,64,0.0,-999.0,81,-99.99,,,0.00,weatherlink.com 1.10,2013-04-03 04:33:00,
2013-04-03 00:48:00,66.5,61.0,30.02,ENE,64,0.0,-999.0,81,-99.99,,,0.00,weatherlink.com 1.10,2013-04-03 04:48:00,
2013-04-03 01:03:00,66.8,61.0,30.02,ENE,64,0.0,-999.0,81,-99.99,,,0.00,weatherlink.com 1.10,2013-04-03 05:03:00,
2013-04-03 01:18:00,66.6,61.0,30.02,ENE,64,0.0,-999.0,81,-99.99,,,0.00,weatherlink.com 1.10,2013-04-03 05:18:00,
2013-04-03 01:33:00,67.2,62.0,30.02,ENE,64,0.0,-999.0,82,-99.99,,,0.00,weatherlink.com 1.10,2013-04-03 05:33:00,
2013-04-03 01:48:00,67.6,62.0,30.01,ENE,64,0.0,-999.0,81,-99.99,,,0.00,weatherlink.com 1.10,2013-04-03 05:48:00,
2013-04-03 02:03:00,67.4,61.0,30.00,ENE,64,0.0,-999.0,81,-99.99,,,0.00,weatherlink.com 1.10,2013-04-03 06:03:00,
2013-04-03 02:18:00,67.7,61.0,29.99,ENE,64,0.0,-999.0,80,-99.99,,,0.00,weatherlink.com 1.10,2013-04-03 06:18:00,
2013-04-03 02:33:00,67.5,61.0,29.98,ENE,64,0.0,-999.0,80,-99.99,,,0.00,weatherlink.com 1.10,2013-04-03 06:33:00,
2013-04-03 02:48:00,66.7,61.0,29.98,ENE,64,0.0,-999.0,81,-99.99,,,0.00,weatherlink.com 1.10,2013-04-03 06:48:00,
2013-04-03 03:03:00,66.1,60.0,29.98,ENE,64,0.0,-999.0,81,-99.99,,,0.00,weatherlink.com 1.10,2013-04-03 07:03:00,
2013-04-03 03:18:00,65.6,60.0,29.98,ENE,64,0.0,-999.0,82,-99.99,,,0.00,weatherlink.com 1.10,2013-04-03 07:18:00,
2013-04-03 03:33:00,65.3,60.0,29.97,ENE,64,0.0,-999.0,82,-99.99,,,0.00,weatherlink.com 1.10,2013-04-03 07:33:00,
2013-04-03 03:48:00,65.0,59.0,29.96,ENE,64,0.0,-999.0,82,-99.99,,,0.00,weatherlink.com 1.10,2013-04-03 07:48:00,
2013-04-03 04:03:00,64.6,59.0,29.95,ENE,64,0.0,-999.0,82,-99.99,,,0.00,weatherlink.com 1.10,2013-04-03 08:03:00,
2013-04-03 04:18:00,64.5,59.0,29.95,ENE,78,0.0,-999.0,82,-99.99,,,0.00,weatherlink.com 1.10,2013-04-03 08:18:00,
2013-04-03 04:33:00,64.4,59.0,29.95,ENE,78,0.0,-999.0,82,-99.99,,,0.00,weatherlink.com 1.10,2013-04-03 08:33:00,
2013-04-03 04:48:00,64.3,59.0,29.95,ENE,78,0.0,-999.0,82,-99.99,,,0.00,weatherlink.com 1.10,2013-04-03 08:48:00,
2013-04-03 05:03:00,64.1,59.0,29.95,ENE,78,0.0,-999.0,82,-99.99,,,0.00,weatherlink.com 1.10,2013-04-03 09:03:00,
2013-04-03 05:18:00,64.3,59.0,29.95,East,80,0.0,-999.0,83,-99.99,,,0.00,weatherlink.com 1.10,2013-04-03 09:18:00,
2013-04-03 05:33:00,64.4,59.0,29.95,East,80,0.0,-999.0,83,-99.99,,,0.00,weatherlink.com 1.10,2013-04-03 09:33:00,
2013-04-03 05:48:00,64.5,59.0,29.96,East,80,0.0,-999.0,83,-99.99,,,0.00,weatherlink.com 1.10,2013-04-03 09:48:00,
2013-04-03 06:03:00,64.5,59.0,29.96,East,80,0.0,-999.0,83,-99.99,,,0.00,weatherlink.com 1.10,2013-04-03 10:03:00,
2013-04-03 06:18:00,65.0,60.0,29.96,East,81,2.0,-999.0,84,-99.99,,,0.00,weatherlink.com 1.10,2013-04-03 10:18:00,
2013-04-03 06:33:00,65.2,60.0,29.95,ESE,107,2.0,-999.0,84,-99.99,,,0.00,weatherlink.com 1.10,2013-04-03 10:33:00,
2013-04-03 06:48:00,65.2,60.0,29.96,ESE,110,2.0,-999.0,84,-99.99,,,0.00,weatherlink.com 1.10,2013-04-03 10:48:00,
2013-04-03 07:03:00,65.4,61.0,29.96,East,93,6.0,-999.0,84,-99.99,,,0.00,weatherlink.com 1.10,2013-04-03 11:03:00,
2013-04-03 07:18:00,65.9,61.0,29.96,SE,143,2.0,-999.0,84,-99.99,,,0.00,weatherlink.com 1.10,2013-04-03 11:18:00,
2013-04-03 07:33:00,66.2,62.0,29.96,ESE,104,7.0,-999.0,85,-99.99,,,0.00,weatherlink.com 1.10,2013-04-03 11:33:00,
2013-04-03 07:48:00,66.1,62.0,29.96,ESE,116,4.0,-999.0,85,-99.99,,,0.00,weatherlink.com 1.10,2013-04-03 11:48:00,
2013-04-03 08:03:00,66.1,62.0,29.96,NNE,17,4.0,-999.0,85,-99.99,,,0.00,weatherlink.com 1.10,2013-04-03 12:03:00,
2013-04-03 08:18:00,66.7,62.0,29.96,NNE,22,2.0,-999.0,85,-99.99,,,0.00,weatherlink.com 1.10,2013-04-03 12:18:00,
2013-04-03 08:33:00,67.6,63.0,29.97,SSE,153,4.0,-999.0,85,-99.99,,,0.00,weatherlink.com 1.10,2013-04-03 12:33:00,
2013-04-03 08:48:00,68.8,64.0,29.98,SE,132,2.0,-999.0,84,-99.99,,,0.00,weatherlink.com 1.10,2013-04-03 12:48:00,
2013-04-03 09:03:00,69.8,64.0,29.98,SSE,162,8.0,-999.0,83,-99.99,,,0.00,weatherlink.com 1.10,2013-04-03 13:03:00,
2013-04-03 09:18:00,70.9,65.0,29.99,SE,130,2.0,-999.0,81,-99.99,,,0.00,weatherlink.com 1.10,2013-04-03 13:18:00,
2013-04-03 09:34:00,72.0,66.0,29.99,ESE,117,2.0,-999.0,80,-99.99,,,0.00,weatherlink.com 1.10,2013-04-03 13:34:00,
2013-04-03 09:49:00,73.1,66.0,29.99,SSE,165,4.0,-999.0,79,-99.99,,,0.00,weatherlink.com 1.10,2013-04-03 13:49:00,
2013-04-03 10:04:00,74.2,67.0,29.99,SSE,152,4.0,-999.0,78,-99.99,,,0.00,weatherlink.com 1.10,2013-04-03 14:04:00,
2013-04-03 10:19:00,74.9,67.0,29.98,SSE,150,13.0,-999.0,76,-99.99,,,0.00,weatherlink.com 1.10,2013-04-03 14:19:00,
2013-04-03 10:34:00,75.7,67.0,29.98,SSW,198,6.0,-999.0,75,-99.99,,,0.00,weatherlink.com 1.10,2013-04-03 14:34:00,
2013-04-03 10:49:00,76.5,68.0,29.98,ESE,112,2.0,-999.0,74,-99.99,,,0.00,weatherlink.com 1.10,2013-04-03 14:49:00,
2013-04-03 11:04:00,76.9,68.0,29.98,South,186,9.0,-999.0,73,-99.99,,,0.00,weatherlink.com 1.10,2013-04-03 15:04:00,
2013-04-03 11:19:00,76.9,68.0,29.98,SW,227,12.0,-999.0,73,-99.99,,,0.00,weatherlink.com 1.10,2013-04-03 15:19:00,
2013-04-03 11:34:00,77.0,67.0,29.96,SSW,192,18.0,-999.0,72,-99.99,,,0.00,weatherlink.com 1.10,2013-04-03 15:34:00,
2013-04-03 11:49:00,78.0,68.0,29.95,SW,215,9.0,-999.0,71,-99.99,,,0.00,weatherlink.com 1.10,2013-04-03 15:49:00,
2013-04-03 12:04:00,78.4,67.0,29.95,South,178,12.0,-999.0,69,-99.99,,,0.00,weatherlink.com 1.10,2013-04-03 16:04:00,
2013-04-03 12:34:00,78.0,67.0,29.96,SSW,213,17.0,-999.0,69,-99.99,,,0.00,weatherlink.com 1.10,2013-04-03 16:34:00,
2013-04-03 12:49:00,78.8,67.0,29.95,SSW,202,13.0,-999.0,67,-99.99,,,0.00,weatherlink.com 1.10,2013-04-03 16:49:00,
2013-04-03 13:04:00,78.6,66.0,29.95,SW,215,14.0,-999.0,66,-99.99,,,0.00,weatherlink.com 1.10,2013-04-03 17:04:00,
2013-04-03 13:19:00,77.5,67.0,29.94,SW,216,18.0,-999.0,69,-99.99,,,0.00,weatherlink.com 1.10,2013-04-03 17:19:00,
2013-04-03 13:34:00,77.5,67.0,29.94,South,191,13.0,-999.0,69,-99.99,,,0.00,weatherlink.com 1.10,2013-04-03 17:34:00,
2013-04-03 13:49:00,77.3,66.0,29.95,SW,225,14.0,-999.0,69,-99.99,,,0.00,weatherlink.com 1.10,2013-04-03 17:49:00,
2013-04-03 14:04:00,77.0,67.0,29.94,SSW,211,12.0,-999.0,70,-99.99,,,0.00,weatherlink.com 1.10,2013-04-03 18:04:00,
2013-04-03 14:19:00,76.8,67.0,29.95,SW,223,18.0,-999.0,71,-99.99,,,0.00,weatherlink.com 1.10,2013-04-03 18:19:00,
2013-04-03 14:34:00,75.5,67.0,29.94,SW,223,16.0,-999.0,75,-99.99,,,0.00,weatherlink.com 1.10,2013-04-03 18:34:00,
2013-04-03 14:49:00,76.0,67.0,29.94,SW,217,15.0,-999.0,74,-99.99,,,0.00,weatherlink.com 1.10,2013-04-03 18:49:00,
2013-04-03 15:04:00,76.6,68.0,29.93,South,189,11.0,-999.0,74,-99.99,,,0.00,weatherlink.com 1.10,2013-04-03 19:04:00,
2013-04-03 15:34:00,76.7,68.0,29.93,SSW,213,14.0,-999.0,74,-99.99,,,0.00,weatherlink.com 1.10,2013-04-03 19:34:00,
2013-04-03 15:49:00,76.8,68.0,29.92,SSW,207,16.0,-999.0,74,-99.99,,,0.00,weatherlink.com 1.10,2013-04-03 19:49:00,
2013-04-03 16:04:00,76.7,67.0,29.93,SW,221,15.0,-999.0,73,-99.99,,,0.00,weatherlink.com 1.10,2013-04-03 20:04:00,
2013-04-03 16:19:00,76.4,68.0,29.93,SSW,213,11.0,-999.0,74,-99.99,,,0.00,weatherlink.com 1.10,2013-04-03 20:19:00,
2013-04-03 16:34:00,76.1,68.0,29.93,SW,225,10.0,-999.0,75,-99.99,,,0.00,weatherlink.com 1.10,2013-04-03 20:34:00,
2013-04-03 16:49:00,75.9,67.0,29.93,SW,225,16.0,-999.0,75,-99.99,,,0.00,weatherlink.com 1.10,2013-04-03 20:49:00,
2013-04-03 17:04:00,75.6,67.0,29.92,SW,225,13.0,-999.0,75,-99.99,,,0.00,weatherlink.com 1.10,2013-04-03 21:04:00,
2013-04-03 17:19:00,75.4,67.0,29.91,SSW,206,17.0,-999.0,76,-99.99,,,0.00,weatherlink.com 1.10,2013-04-03 21:19:00,
2013-04-03 17:34:00,74.8,67.0,29.91,SSW,203,6.0,-999.0,77,-99.99,,,0.00,weatherlink.com 1.10,2013-04-03 21:34:00,
2013-04-03 17:49:00,74.3,67.0,29.92,South,186,12.0,-999.0,78,-99.99,,,0.00,weatherlink.com 1.10,2013-04-03 21:49:00,
2013-04-03 18:04:00,73.9,67.0,29.91,SSW,198,9.0,-999.0,79,-99.99,,,0.00,weatherlink.com 1.10,2013-04-03 22:04:00,
2013-04-03 18:19:00,73.7,67.0,29.90,South,183,6.0,-999.0,79,-99.99,,,0.00,weatherlink.com 1.10,2013-04-03 22:19:00,
2013-04-03 18:34:00,73.5,67.0,29.90,SSW,199,7.0,-999.0,79,-99.99,,,0.00,weatherlink.com 1.10,2013-04-03 22:34:00,
2013-04-03 18:49:00,73.1,67.0,29.91,South,178,6.0,-999.0,80,-99.99,,,0.00,weatherlink.com 1.10,2013-04-03 22:49:00,
2013-04-03 19:04:00,72.7,66.0,29.92,SW,218,9.0,-999.0,80,-99.99,,,0.00,weatherlink.com 1.10,2013-04-03 23:04:00,
2013-04-03 19:19:00,72.2,66.0,29.92,SSW,209,7.0,-999.0,81,-99.99,,,0.00,weatherlink.com 1.10,2013-04-03 23:19:00,
2013-04-03 19:34:00,72.0,66.0,29.92,SSW,192,7.0,-999.0,81,-99.99,,,0.00,weatherlink.com 1.10,2013-04-03 23:34:00,
2013-04-03 19:49:00,72.0,66.0,29.93,SSW,209,9.0,-999.0,81,-99.99,,,0.00,weatherlink.com 1.10,2013-04-03 23:49:00,
2013-04-03 20:04:00,71.9,66.0,29.93,South,173,5.0,-999.0,81,-99.99,,,0.00,weatherlink.com 1.10,2013-04-04 00:04:00,
2013-04-03 20:20:00,71.9,66.0,29.94,SSW,198,5.0,-999.0,81,-99.99,,,0.00,weatherlink.com 1.10,2013-04-04 00:20:00,
2013-04-03 20:34:00,71.8,66.0,29.94,SSW,200,5.0,-999.0,81,-99.99,,,0.00,weatherlink.com 1.10,2013-04-04 00:34:00,
2013-04-03 21:20:00,71.9,66.0,29.95,SSW,198,5.0,-999.0,81,-99.99,,,0.00,weatherlink.com 1.10,2013-04-04 01:20:00,
2013-04-03 21:35:00,71.9,66.0,29.94,South,174,5.0,-999.0,81,-99.99,,,0.00,weatherlink.com 1.10,2013-04-04 01:35:00,
2013-04-03 21:50:00,71.9,66.0,29.96,SSW,205,7.0,-999.0,82,-99.99,,,0.00,weatherlink.com 1.10,2013-04-04 01:50:00,
2013-04-03 22:05:00,71.8,66.0,29.97,SSW,209,6.0,-999.0,82,-99.99,,,0.00,weatherlink.com 1.10,2013-04-04 02:05:00,
2013-04-03 22:20:00,71.6,66.0,29.98,SW,217,8.0,-999.0,82,-99.99,,,0.00,weatherlink.com 1.10,2013-04-04 02:20:00,
2013-04-03 22:35:00,70.4,65.0,29.99,West,269,4.0,-999.0,83,-99.99,,,0.00,weatherlink.com 1.10,2013-04-04 02:35:00,
2013-04-03 23:05:00,70.8,65.0,29.98,SSW,208,4.0,-999.0,83,-99.99,,,0.00,weatherlink.com 1.10,2013-04-04 03:05:00,
2013-04-03 23:20:00,70.6,65.0,29.99,SW,215,5.0,-999.0,83,-99.99,,,0.00,weatherlink.com 1.10,2013-04-04 03:20:00,
2013-04-03 23:35:00,70.5,65.0,29.98,SSW,202,6.0,-999.0,83,-99.99,,,0.00,weatherlink.com 1.10,2013-04-04 03:35:00,
2013-04-03 23:50:00,71.2,66.0,29.98,SSW,206,7.0,-999.0,83,-99.99,,,0.00,weatherlink.com 1.10,2013-04-04 03:50:00,